sat.trackr.live / text

‹ back to catalog

CYGFM01

NORAD 41887 · 2016-078D

PAYLOAD INACTIVE UNKNOWN

§ Identity

Operator
Country
US
Launch date
2016-12-15
Launch site
ERAS
Launch vehicle
Mass (kg)
RCS (m²)
0.23

Purposes: earth_obs

External: N2YO · Heavens-Above · Gunter

§ Orbital elements

Epoch: 2026-05-25T03:31:31.309824Z

Period
92.54 min
Inclination
34.9410°
Eccentricity
0.0008785
Mean motion
15.56158820 rev/d
Perigee alt
392.8 km
Apogee alt
404.7 km
Semi-major
6,776.9 km
B*
3.1853e-4
RAAN
54.2722°
Arg perigee
286.1793°
Mean anomaly
73.7964°
Rev number
52,511

§ Raw data

CYGFM011 41887U 16078D   26145.14689016  .00023087  00000+0  31853-3 0  99952 41887  34.9410  54.2722 0008785 286.1793  73.7964 15.56158820525118

JSON: /api/v1/satellites/41887 · /tle

For live sub-satellite position, see the globe view (requires WebGL).

§ Visibility from observer

Set your observer location to see the next 7 days of passes ≥ 10°. The values pass through the URL so the page stays shareable.

No JS? Fill the form by hand. The geolocation button needs JavaScript.